Simultaneous Nadir Overpasses (SNOs) Predictions

Prediction of SNOs between NOAA-19 and TERRA Satellite Orbit:

Table of predicted SNOs for the next 14.0 days since TLE Epoch: 9/14/2012
Index Date (NOAA-19) Time (NOAA-19) NOAA-19 Lat,Lon Date (TERRA) Time (TERRA) TERRA Lat,Lon Distance(km) Time Diff (sec)
1 09/15/2012 02:54:59 70.12, 134.17 09/15/2012 02:56:05 70.02, 136.60 93.10 66
2 09/15/2012 03:45:36 -69.09, -57.03 09/15/2012 03:45:50 -69.08, -57.03 1.32 14
3 09/15/2012 04:36:35 68.59, 110.88 09/15/2012 04:35:23 68.64, 110.06 33.71 72
4 09/17/2012 07:39:22 69.42, 64.09 09/17/2012 07:40:34 69.33, 64.59 21.94 72
5 09/17/2012 08:30:12 -69.04,-128.11 09/17/2012 08:30:07 -69.05,-128.13 1.21 5
6 09/19/2012 12:23:54 69.19, -6.73 09/19/2012 12:24:53 69.18, -6.67 2.58 59
7 09/19/2012 13:14:48 -69.01, 160.79 09/19/2012 13:14:24 -69.02, 160.76 2.12 24
8 09/21/2012 17:08:29 69.14, -77.80 09/21/2012 17:09:10 69.15, -77.79 1.15 41
9 09/21/2012 17:59:24 -68.98, 89.68 09/21/2012 17:58:41 -68.99, 89.64 1.92 43
10 09/23/2012 21:53:04 69.09,-148.88 09/23/2012 21:53:27 69.10,-148.91 2.02 23
11 09/23/2012 22:44:00 -68.96, 18.56 09/23/2012 22:42:58 -68.94, 18.52 2.49 62
12 09/26/2012 01:46:55 -70.21, -28.91 09/26/2012 01:48:01 -70.05, -26.35 98.53 66
13 09/26/2012 02:37:40 69.11, 139.95 09/26/2012 02:37:43 69.11, 140.02 2.80 3
14 09/26/2012 03:28:30 -68.63, -52.13 09/26/2012 03:27:18 -68.73, -52.82 30.07 72
15 09/28/2012 06:31:18 -69.53, -99.02 09/28/2012 06:32:29 -69.40, -98.31 31.02 71
16 09/28/2012 07:22:13 69.03, 68.92 09/28/2012 07:21:59 69.06, 68.89 3.08 14




NCC Satellite Simultaneous Nadir Overpasses (SNOs) Prediction Service
